TIME,DELAY(SENSOR),PRES,T(CTD),SAL,OXYGEN,RAWTEMP,T(OPTODE),TCPHASE,FLUOR,BETA(BETA700),BETA(BETA412),BETA(BETA440),CDOM,C(CSC),ED(ED411.90),ED(ED443.80),ED(ED489.40),ED(ED554.70),LU(LU412.20),LU(LU443.80),LU(LU489.40),LU(LU555.00),COMP,TILTX,TILTX(TILTY),CHECK
1352993938,5805,496.8599853515625000,17.3094997406005860,36.4192008972168000,221.3818054199218800,178.2003936767578000,17.3056106567382800,31.7272891998291000,50,103,60,60,58,13511,2146956406,2147516251,2147267922,2147466084,2147087981,2146956699,2147655762,2147124141,1393,-1,8,5197
1352994059,5806,485.6499938964844000,17.4416007995605470,36.4499015808105500,227.6967010498047000,173.7937011718750000,17.4385509490966800,31.3436698913574220,50,99,60,59,57,13511,2146954816,2147514642,2147268626,2147464466,2147089773,2146954998,2147656466,2147128768,3547,-1,8,3690
1352994169,5806,475.5000000000000000,17.5356006622314450,36.4676017761230500,229.1233978271484400,170.6618041992187500,17.5330390930175780,31.2296390533447270,50,102,60,59,57,13509,2146960978,2147512667,2147270034,2147460516,2147090496,2146956699,2147652909,2147132214,1955,-1,8,51266
1352994292,5806,464.1600036621094000,17.5991992950439450,36.4767990112304700,230.0704040527343800,168.6188964843750000,17.5946807861328120,31.1547908782959000,50,100,61,60,57,13507,2146959515,2147515437,2147266989,2147461101,2147088649,2146955611,2147651017,2147129737,511,-1,8,54157
1352994413,5804,453.1900024414062500,17.6695003509521500,36.4891014099121100,228.6699066162109400,166.3162994384765600,17.6641693115234380,31.1932792663574220,50,99,61,59,58,13508,2146956123,2147513408,2147266166,2147462500,2147087533,2146956187,2147649435,2147128612,2369,-1,8,37267
1352994537,5806,442.0899963378906000,17.7765007019042970,36.5087013244628900,230.5381927490234400,162.7610015869140600,17.7714805603027340,31.0524997711181640,51,101,60,61,58,13507,2146959332,2147511789,2147268397,2147462518,2147085330,2146952804,2147648795,2147125878,1141,-1,8,64327
1352994658,5804,431.3099975585937500,17.8553009033203120,36.5243988037109400,232.4832000732422000,160.0915985107422000,17.8520698547363280,30.9211692810058600,50,100,61,60,56,13507,2146957878,2147511515,2147266212,2147459053,2147084836,2146960804,2147649517,2147126390,3202,-1,8,31828
1352994779,5804,420.5499877929687500,17.9328994750976560,36.5373992919921900,233.2512969970703000,157.2745971679687500,17.9371204376220700,30.8456306457519530,50,100,60,60,58,13503,2146958729,2147514450,2147264868,2147459830,2147087104,2146956361,2147652160,2147127597,2042,-1,8,20582
1352994902,5805,409.7200012207031000,17.9958992004394530,36.5480995178222660,233.6083068847656200,155.4723968505859400,17.9915504455566400,30.8041706085205080,50,101,59,60,56,13505,2146957842,2147512530,2147267062,2147457691,2147079634,2146963044,2147651520,2147123958,582,-1,8,8004
1352995034,5808,397.9599914550781000,18.0499992370605470,36.5556983947753900,233.3690032958984400,153.6392974853515600,18.0469093322753900,30.7914695739746100,50,101,60,59,58,13505,2146958518,2147515364,2147264859,2147458276,2147088100,2146959716,2147656118,2147129837,2543,-1,8,13305
1352995158,5802,386.7000122070312500,18.1028995513916000,36.5609016418457000,232.6080932617187500,151.9337005615234400,18.0984306335449220,30.8053894042968750,50,100,59,59,57,13504,2146956096,2147514496,2147266770,2147459172,2147083858,2146959826,2147652891,2147125677,1596,-1,8,32413
1352995268,5807,376.5400085449219000,18.1359996795654300,36.5676002502441400,232.6708984375000000,150.5778961181640600,18.1393795013427730,30.7844505310058600,50,101,61,59,57,13502,2146954889,2147516406,2147265965,2147457974,2147082806,2146949504,2147647451,2147126656,857,-1,8,32898
1352995389,5806,365.2300109863281000,18.2050991058349600,36.5749015808105500,232.3616027832031200,148.6033020019531200,18.1990394592285160,30.7730102539062500,50,101,61,59,58,13503,2146958646,2147514313,2147264009,2147459401,2147075245,2146960320,2147648420,2147125851,31,-1,8,34118
1352995512,5803,353.8599853515625000,18.2448005676269530,36.5787010192871100,232.0628051757812500,147.2861022949218800,18.2388305664062500,30.7696800231933600,50,100,60,60,57,13501,2146956562,2147512155,2147263734,2147458249,2147078811,2146956278,2147650742,2147127963,2983,-1,8,56201
1352995633,5807,343.0799865722656000,18.2957000732421880,36.5834999084472660,231.5630950927734400,145.5012054443359400,18.2927703857421880,30.7704696655273440,50,101,61,60,56,13502,2146961334,2147511003,2147263561,2147459245,2147078893,2146961920,2147649243,2147126217,1695,-1,9,63030
1352995757,5806,332.5899963378906000,18.3745002746582030,36.5890007019043000,230.1392974853515600,143.0552978515625000,18.3666896820068360,30.8075599670410160,50,100,60,61,57,13503,2146961042,2147511552,2147266770,2147457984,2147086829,2146962706,2147649115,2147128338,386,-1,9,11755
1352995889,5804,321.9599914550781000,18.4388999938964840,36.5920982360839840,228.8863983154297000,140.8379058837890600,18.4337100982666000,30.8401107788085940,50,102,59,59,57,13503,2146959478,2147515364,2147264886,2147457435,2147080210,2146958939,2147644973,2147127250,2221,-1,8,15537
1352996032,5802,310.8099975585937500,18.4974002838134770,36.5941009521484400,228.1351928710937500,138.7572021484375000,18.4966201782226560,30.8494892120361330,51,102,59,60,57,13502,2146956982,2147512621,2147265490,2147454985,2147076946,2146956580,2147653220,2147125604,1033,-1,8,3938
1352996165,5805,299.0899963378906000,18.6476001739501950,36.6035003662109400,226.2026977539062500,133.6430969238281200,18.6512699127197270,30.8775196075439450,50,99,61,60,56,13505,2146960576,2147512923,2147264484,2147453046,2147083172,2146959341,2147647442,2147126564,3403,-1,8,19719
1352996275,5805,288.3500061035156000,18.7546997070312500,36.6119995117187500,221.6609954833984400,129.7566986083984400,18.7688407897949220,31.0561904907226560,50,100,60,60,57,13505,2146959158,2147513709,2147265554,2147457161,2147080429,2146961024,2147644800,2147128091,2123,-1,9,37657
1352996399,5803,276.5199890136719000,18.9073009490966800,36.6214981079101560,216.5455932617187500,124.8869018554687500,18.9162101745605470,31.2568206787109380,50,100,60,62,58,13505,2146957906,2147511204,2147267757,2147456237,2147083172,2146963035,2147645677,2147125430,1020,-1,8,16192
1352996520,5807,265.2099914550781000,19.1063995361328120,36.6445007324218750,214.6228027343750000,118.6949996948242200,19.1036796569824220,31.2756309509277340,51,100,60,60,58,13505,2146957001,2147513088,2147261997,2147451867,2147083803,2146966308,2147645083,2147126857,3512,-2,8,881
1352996641,5804,254.2799987792968800,19.2614002227783200,36.6439018249511700,217.2734985351562500,113.9875030517578100,19.2462806701660160,31.0725593566894530,50,100,59,60,58,13505,2146956964,2147514240,2147263597,2147452352,2147083218,2146969508,2147643638,2147124580,2183,-1,9,52686
1352996765,5805,243.0800018310547000,19.2546005249023440,36.5884017944335940,236.4519958496093800,113.7433013916015600,19.2536792755126950,30.1151504516601560,50,98,60,60,55,13503,2146960548,2147514907,2147261824,2147451675,2147086363,2146964946,2147642121,2147128466,1491,-2,9,39374
1352996886,5805,232.2500000000000000,19.2943992614746100,36.5834999084472660,242.1761016845703000,112.5736999511718800,19.2891197204589840,29.8327598571777340,50,99,59,60,57,13504,2146956297,2147512228,2147262683,2147450368,2147089060,2146966610,2147642331,2147130166,480,-1,8,22777
1352997010,5807,221.0200042724609400,19.3215007781982420,36.5816993713378900,245.6101989746093800,111.6373977661132800,19.3174896240234380,29.6642208099365230,50,98,59,60,56,13505,2146957622,2147513508,2147263488,2147451510,2147090285,2146962651,2147643721,2147127460,2648,-1,9,45974
1352997131,5803,210.1999969482422000,19.3910999298095700,36.5751991271972660,243.7458038330078000,109.0151977539062500,19.3969707489013670,29.7148399353027340,52,101,60,60,56,13501,2146959680,2147509924,2147263478,2147450523,2147083136,2146967414,2147645595,2147129462,1411,-1,8,60251
1352997252,5806,199.5800018310547000,19.4909992218017580,36.5825004577636700,243.4228057861328000,106.1407012939453100,19.4841194152832030,29.6922492980957030,53,101,61,61,57,13497,2146959744,2147512338,2147265334,2147450230,2147087085,2146963721,2147648192,2147126226,560,-1,9,18623
1352997307,5807,194.7899932861328000,19.5583992004394530,36.5906982421875000,243.2012939453125000,103.8450012207031200,19.5537395477294920,29.6724700927734380,53,103,60,61,57,13496,2146960996,2147511378,2147263122,2147448347,2147087158,2146968786,2147645686,2147127634,211,-1,9,29460
1352997382,5803,188.7200012207031200,19.6417999267578120,36.6012992858886700,242.6195983886718800,100.8536987304687500,19.6444797515869140,29.6605091094970700,55,101,61,61,56,13493,2146957174,2147513499,2147265453,2147450468,2147088704,2146970212,2147647149,2147130294,3022,-1,9,28574
1352997437,5805,184.6699981689453000,19.7278995513916000,36.6067008972168000,242.2350006103515600,98.1308135986328100,19.7271003723144530,29.6428298950195300,56,102,60,60,57,13494,2146958939,2147512722,2147263195,2147450852,2147086317,2146966966,2147645732,2147129993,3071,-1,8,49229
1352997492,5805,180.6300048828125000,19.7985992431640620,36.6097984313964840,242.7552032470703000,95.5595092773437500,19.8051395416259770,29.5856609344482420,57,102,60,59,57,13492,2146958390,2147514477,2147261988,2147450816,2147091300,2146969024,2147645897,2147127296,139,-1,8,53435
1352997547,5805,176.6799926757812500,19.8745002746582030,36.6180992126464840,243.0001983642578000,93.1687698364257800,19.8777294158935550,29.5435905456542970,58,103,59,60,58,13489,2146955611,2147512420,2147264868,2147448640,2147087350,2146972498,2147652736,2147128265,3450,-1,9,1642
1352997602,5804,172.8699951171875000,19.9321994781494140,36.6287002563476560,241.6217041015625000,91.4358901977539000,19.9303493499755860,29.5842990875244140,59,103,60,61,57,13491,2146958939,2147514020,2147264493,2147450130,2147087634,2146966281,2147648950,2147127241,2930,-2,9,17144
1352997657,5810,169.0899963378906200,20.0629005432128900,36.6408004760742200,238.4649047851562500,87.1483230590820300,20.0606002807617200,29.6747398376464840,57,105,60,60,57,13493,2146961664,2147512868,2147263104,2147447204,2147092406,2146970258,2147650642,2147130861,2684,-2,9,32454
1352997735,5806,164.4400024414062500,20.1536998748779300,36.6470985412597660,236.1844940185547000,84.4056015014648400,20.1439495086669920,29.7457809448242200,58,106,60,60,57,13489,2146958994,2147513060,2147261321,2147449499,2147090870,2146975442,2147651913,2147126802,1881,-2,9,41484
1352997812,5805,160.8200073242187500,20.2646999359130860,36.6501998901367200,236.4956970214843800,80.8355789184570300,20.2524890899658200,29.6852302551269530,60,104,61,60,57,13490,2146957312,2147513344,2147264557,2147446144,2147088393,2146975634,2147656356,2147130752,1198,-1,9,20900
1352997911,5805,156.7400054931640600,20.4223003387451170,36.6567993164062500,237.4754028320312500,75.4404220581054700,20.4165992736816400,29.5698108673095700,61,103,60,60,56,13486,2146958299,2147516013,2147260278,2147445613,2147089170,2146978715,2147657609,2147129444,1075,-2,9,25900
1352998024,5806,152.6300048828125000,20.4552993774414060,36.6594009399414060,240.8547058105468800,74.3597793579101600,20.4494895935058600,29.3998603820800780,66,103,60,59,57,13483,2146960219,2147514633,2147261686,2147442112,2147089764,2146980507,2147660909,2147129764,210,-1,9,63755
1352998123,5808,148.7400054931640600,20.5555992126464840,36.6651992797851560,241.9508972167968800,71.1098937988281200,20.5484104156494140,29.3079204559326170,66,105,60,61,58,13482,2146957522,2147515529,2147262400,2147443648,2147093769,2146981376,2147663030,2147130368,184,-1,9,42803
1352998222,5806,144.5800018310547000,20.6713008880615230,36.6693000793457000,240.7967071533203000,67.7334136962890600,20.6512393951416000,29.3174991607666000,65,105,60,60,57,13482,2146958464,2147511762,2147259510,2147446665,2147091373,2146985243,2147669604,2147127606,710,-1,9,41486
1352998310,5806,140.8000030517578000,20.7373008728027340,36.6689987182617200,242.0991973876953000,65.2192535400390600,20.7278308868408200,29.2261009216308600,68,106,61,60,57,13481,2146958070,2147511396,2147263040,2147442642,2147091401,2146987657,2147678921,2147131300,372,-1,9,11398
1352998411,5807,136.7700042724609400,20.9051990509033200,36.6716003417968750,243.7978057861328000,60.1040916442871100,20.8837394714355470,29.0841007232666000,68,104,59,60,57,13460,2146958537,2147514898,2147262592,2147443108,2147094875,2146998354,2147691136,2147128804,3575,-1,9,1854
1352998532,5805,133.3999938964843800,20.9983005523681640,36.6739006042480500,247.0397949218750000,56.7969589233398440,20.9846000671386720,28.8976898193359380,70,114,60,60,58,13481,2146957028,2147511241,2147261632,2147439945,2147098066,2147006646,2147696283,2147129179,2461,-2,9,35261
1352998729,5806,129.1999969482422000,21.2292003631591800,36.6817016601562500,247.1264038085937500,49.5432205200195300,21.2059993743896500,28.8020896911621100,68,107,61,59,56,13473,2146955181,2147512484,2147261805,2147439588,2147103542,2147024301,2147721088,2147135542,2192,-1,8,18874
1352998839,5806,125.9800033569336000,21.5091991424560550,36.6917991638183600,244.7068939208984400,40.5767707824707000,21.4799995422363280,28.7960300445556640,70,106,60,61,57,13470,2146960621,2147511424,2147260269,2147438363,2147106267,2147041069,2147742070,2147137133,2971,-1,9,6821
1352998995,5805,121.5899963378906200,21.7784996032714840,36.7116012573242200,236.3574981689453000,31.3852005004882800,21.7612705230712900,29.0588893890380860,74,108,61,60,56,13472,2146955300,2147516406,2147265846,2147439405,2147117001,2147069449,2147786523,2147140032,725,-1,9,29536
1352999083,5805,117.6100006103515600,21.7861995697021500,36.6964988708496100,237.4421997070312500,30.9274902343750000,21.7752895355224600,29.0031700134277340,71,110,60,60,56,13470,2146957147,2147519040,2147267492,2147438546,2147126985,2147105837,2147824585,2147143542,1162,-1,9,23079
1352999182,5809,114.0299987792968800,22.3055000305175780,36.6640014648437500,235.4183959960937500,15.0632200241088870,22.2617797851562500,28.8962306976318360,80,110,59,60,57,13458,2146958610,2147517796,2147267154,2147439350,2147143963,2147126299,2147863168,2147145526,855,-2,9,34318
1352999349,5806,110.3000030517578100,22.8155994415283200,36.4980010986328100,237.0341033935547000,-0.3910303115844727,22.7369995117187500,28.6273307800292970,95,117,61,60,56,13434,2146957046,2147518290,2147268946,2147434633,2147161691,2147168000,2147915894,2147150784,492,-2,9,60809
1353000090,5809,106.8300018310546900,23.3255004882812500,36.3670005798339840,242.0951995849609400,-19.0974407196044920,23.3140697479248050,28.1661891937255860,84,126,62,63,54,13416,2146961581,2147526528,2147280868,2147431433,2147258624,2147402276,2148222345,2147173622,1637,-2,9,20101
1353000345,5807,102.0699996948242200,23.3829994201660160,36.3448982238769500,243.7711944580078000,-21.0942001342773440,23.3757896423339840,28.0673694610595700,87,131,62,62,54,13398,2146970505,2147539474,2147305115,2147426980,2147437851,2147759204,2148689782,2147209673,746,-1,9,58418
1353000433,5806,98.9199981689453100,23.3878002166748050,36.3372993469238300,244.6640014648437500,-21.3482303619384770,23.3836498260498050,28.0249900817871100,90,133,63,62,54,13377,2146977664,2147554066,2147323346,2147431131,2147601069,2148072502,2149110381,2147239396,72,-1,9,45568
1353000488,5805,96.7600021362304700,23.3896007537841800,36.3357009887695300,245.2528076171875000,-21.4108791351318360,23.3855895996093750,27.9984302520751950,89,135,64,62,54,13375,2146981074,2147555090,2147329069,2147429632,2147692370,2148235593,2149302454,2147254436,3232,-2,9,37588
1353000566,5809,92.9199981689453100,23.3896007537841800,36.3336982727050800,245.9282989501953000,-21.4113693237304700,23.3855991363525400,27.9689998626709000,86,153,62,64,54,13369,2146994697,2147579648,2147366180,2147431716,2148018898,2148852864,2150113856,2147316233,2771,-1,9,51568
1353000621,5805,89.5800018310546900,23.3899002075195300,36.3326988220214840,246.1690063476562500,-21.4247398376464840,23.3860092163085940,27.9583091735839840,85,134,63,63,53,13364,2147021632,2147627666,2147432164,2147434669,2148602797,2150003254,2151726573,2147444214,2421,-1,9,38215
1353000676,5807,86.1600036621093800,23.3901004791259770,36.3324012756347660,246.3733062744140600,-21.4454002380371100,23.3866500854492200,27.9491291046142580,83,139,63,63,54,13364,2147051483,2147679049,2147520905,2147441426,2149371026,2151449261,2153686829,2147595757,2291,-1,9,6807
1353000731,5805,82.6500015258789000,23.3911991119384770,36.3315010070800800,246.5254974365234400,-21.4701805114746100,23.3874206542968750,27.9422893524169920,83,140,62,62,54,13366,2147074806,2147714057,2147575926,2147441782,2149938724,2152418770,2154900196,2147696429,2091,-2,9,29178
1353000786,5809,79.2099990844726600,23.3913002014160160,36.3311004638671900,246.5915985107422000,-21.4854202270507800,23.3878898620605470,27.9392108917236330,83,137,65,62,52,13361,2147112429,2147779520,2147668013,2147448960,2150846198,2153962230,2156872886,2147867958,1759,-1,9,65084
1353000841,5808,75.8000030517578100,23.3913993835449220,36.3316001892089840,246.8890075683593800,-21.5193500518798830,23.3889408111572270,27.9260005950927730,83,139,61,62,55,13363,2147162989,2147852635,2147779483,2147455926,2151961819,2155830006,2159240603,2148078006,1686,-1,9,35652
1353000915,5806,71.5000000000000000,23.3913993835449220,36.3305015563964840,246.9860992431640600,-21.5272197723388670,23.3891792297363280,27.9216499328613280,85,139,62,63,53,13364,2147236955,2147964480,2147939757,2147465856,2153733129,2158707986,2162793334,2148421211,1644,-1,9,27056
1353000970,5808,68.7200012207031200,23.3922996520996100,36.3288002014160160,247.0668029785156200,-21.5210208892822270,23.3889904022216800,27.9181194305419920,83,142,64,64,54,13358,2147293696,2148043766,2148057728,2147475437,2155076836,2160855085,2165415844,2148690861,1589,-1,9,27306
1353001025,5803,65.9899978637695300,23.3915004730224600,36.3286018371582000,247.2277069091797000,-21.5105991363525400,23.3886699676513670,27.9113292694091800,84,139,63,63,53,13360,2147369106,2148152374,2148206262,2147485074,2156842669,2163628233,2168765933,2149059584,1628,-2,9,32616
1353001080,5806,63.2999992370605500,23.3897991180419920,36.3291015625000000,247.2760009765625000,-21.5100097656250000,23.3886508941650400,27.9091796875000000,84,143,63,64,54,13361,2147425664,2148225664,2148301220,2147496374,2158258395,2165791945,2171291072,2149383186,1709,-1,9,886
1353001135,5807,60.5099983215332000,23.3875007629394530,36.3283004760742200,247.3229980468750000,-21.4413604736328120,23.3865299224853500,27.9080505371093750,83,138,63,62,55,13361,2147368813,2148118866,2148131465,2147489782,2156953225,2162992420,2167177654,2149067337,1797,-1,9,22967
1353001190,5808,57.7400016784668000,23.3882007598876950,36.3269996643066400,247.3217010498047000,-21.4089107513427730,23.3855209350585940,27.9085693359375000,82,140,63,63,53,13359,2147377307,2148116836,2148118061,2147494765,2157190710,2163049764,2166964726,2149143433,1765,-1,9,32808
1353001247,5807,54.9700012207031250,23.3868007659912100,36.3273010253906250,247.3930969238281200,-21.4024200439453120,23.3853206634521500,27.9054393768310550,83,141,62,65,55,13355,2147379602,2148108955,2148092553,2147496676,2157305554,2162883291,2166495561,2149201993,1822,-1,9,38724
1353001389,5806,49.1800003051757800,23.3871002197265620,36.3268013000488300,247.4577941894531200,-21.3823509216308600,23.3847007751464840,27.9030208587646500,82,141,63,64,54,13359,2147407040,2148105389,2148057892,2147506797,2157883401,2162847881,2165642422,2149324434,1834,-1,9,32704
1353001423,5810,47.5600013732910160,23.3857994079589840,36.3269004821777340,247.5204925537109400,-21.3745899200439450,23.3844604492187500,27.9002895355224600,83,150,63,63,51,13347,2147474779,2148195218,2148162349,2147523565,2159645988,2165196754,2168110363,2149721554,1806,-1,8,37982
1353001468,5806,45.4000015258789060,23.3852996826171880,36.3265991210937500,247.5680999755859400,-21.3693695068359380,23.3843002319335940,27.8983898162841800,82,141,64,63,55,13352,2147543954,2148278262,2148267657,2147539840,2161293933,2167404507,2170510866,2150155812,1832,-2,9,65413
1353001501,5806,43.8199996948242200,23.3841991424560550,36.3263015747070300,247.6390075683593800,-21.3734092712402340,23.3844299316406250,27.8953609466552730,83,142,64,62,54,13350,2147560265,2148291794,2148273892,2147547474,2161741129,2167725833,2170590710,2150267712,1816,-1,9,26132
1353001548,5807,41.5699996948242200,23.3852996826171880,36.3255996704101560,247.6251983642578000,-21.3961200714111330,23.3851299285888670,27.8955993652343750,83,140,63,63,54,13353,2147606372,2148335268,2148319606,2147560932,2162855661,2168898176,2171542043,2150531885,1881,-2,9,37893
1353001593,5808,39.4000015258789060,23.3864994049072270,36.3260002136230500,247.7792968750000000,-21.3922901153564450,23.3850097656250000,27.8888702392578120,84,140,64,64,54,13352,2147687286,2148426587,2148419657,2147580681,2164759222,2171164681,2173762386,2150985856,1875,-1,9,3084
1353001626,5810,37.7999992370605500,23.3889999389648440,36.3273010253906250,247.6513977050781200,-21.4715595245361330,23.3874607086181640,27.8935298919677730,84,138,63,64,52,13357,2147762212,2148503954,2148508196,2147598464,2166722139,2173439488,2175853238,2151520950,1938,-2,9,4104
1353001671,5805,35.5999984741210940,23.3896007537841800,36.3263015747070300,247.7194976806640600,-21.5067691802978500,23.3885498046875000,27.8900909423828120,84,142,63,64,54,13349,2147934592,2148710747,2148753344,2147640658,2170700772,2178674550,2181371785,2152554258,2200,-1,9,36908
1353001716,5751,33.4300003051757800,23.3903999328613280,36.3263015747070300,247.7976989746093800,-21.5767898559570300,23.3907203674316400,27.8859996795654300,86,141,63,63,56,13348,2148325824,2149184941,2149335341,2147724150,2179880996,2191162038,2194859072,2155099099,2441,-1,9,34719
1353001760,5808,31.3600006103515620,23.3983001708984380,36.3292999267578100,247.7825012207031200,-21.9523792266845700,23.4023303985595700,27.8819103240966800,84,138,64,62,53,13346,2148376137,2149213668,2149338422,2147743259,2181139675,2192067282,2195284196,2155446857,2604,-1,8,34599
1353001793,5809,29.8199996948242200,23.4137992858886720,36.3311996459960940,247.8056030273437500,-22.2907905578613280,23.4127902984619140,27.8767204284667970,81,135,62,63,54,13352,2148220050,2148980105,2149018203,2147723154,2177126774,2185246774,2186736192,2154139995,2768,0,9,39489
1353001838,5805,27.8199996948242200,23.4321994781494140,36.3349990844726560,247.7321929931640600,-22.9112701416015620,23.4319801330566400,27.8722496032714840,83,136,63,63,50,13358,2148486793,2149276534,2149376036,2147808201,2183237988,2192811373,2194256969,2155924736,3060,-1,9,60148
1353001884,5804,25.8799991607666000,23.4489002227783200,36.3386993408203100,247.6369018554687500,-23.5052890777587900,23.4503593444824220,27.8691902160644530,81,134,62,62,54,13361,2148679670,2149490624,2149653558,2147891218,2187485485,2197723638,2199207862,2157153590,3327,-1,8,39472
